Tracking 19164 objects as of 21-May-2018
HD Live streaming from Space Station
objects crossing your sky now

OV1-19

Track OV1-19 now!
10-day predictions
OV1-19 is classified as:


NORAD ID: 3825
Int'l Code: 1969-025C
Perigee: 483.1 km
Apogee: 5,532.8 km
Inclination: 104.7 °
Period: 150.7 minutes
Semi major axis: 9378 km
RCS: 0.6895 m2 (medium)
Launch date: March 18, 1969
Source: United States (US)
Launch site: AIR FORCE WESTERN TEST RANGE (AFWTR)
aabbcc
Your satellite tracking list
Your tracking list is empty




NASA's NSSDC Master Catalog

Two Line Element Set (TLE):
1 03825U 69025C   18140.76900766 -.00000023  00000-0  74319-5 0  9990
2 03825 104.7272 192.0792 2692073 167.9624 200.1592  9.55810060701840
Source of the keplerian elements: AFSPC